[[{"header":{"parameterUnit":"m.s-1","parameterCategory":1,"la1":30.2991,"la2":30.254,"lo1":-89.0895,"lo2":-89.0444,"dy":0.0017,"dx":0.0017,"nx":28,"ny":28,"refTime":"2023-07-18T21:00:00:Z","depth":0,"parameterNumber":2,"parameterNumberName":"U-component_of_WINDS"},"data":[0,0,0,0,0,0,0,0,0,0,0,0,0,0,0,0,0,0,0,0,0,0,0,0,0,0,0,0,0,0,0,0,0,0,0,0,0,0,0,0,0,0,0,0,0,0,0,0,0,0,0,0,0,0,0,0,0,0,2.2723,2.2722,0,2.27,2.2699,2.2699,2.2617,2.2615,2.2613,2.2612,2.2588,2.2589,2.259,0,0,0,0,0,0,0,0,0,0,0,0,0,2.2693,2.2694,2.2723,2.2722,2.2722,2.27,2.2699,2.2699,2.2617,2.2615,2.2613,2.2611,2.2587,2.2589,2.259,0,0,0,0,0,0,0,0,0,0,0,0,0,2.2692,2.2695,2.2723,2.2679,2.2674,2.27,2.2699,2.2699,2.2618,2.2615,2.2612,2.261,2.2587,2.2589,2.259,2.2656,0,0,2.2595,2.2596,0,0,0,0,0,0,0,0,2.2692,2.2693,2.2685,2.2682,2.2677,2.2658,2.268,2.2685,2.2619,2.2639,2.2611,2.2608,2.2613,2.2613,2.2615,2.2655,2.2654,2.2595,2.2596,2.2597,2.2597,0,0,0,0,0,0,0,2.2692,2.2694,2.2713,2.2685,2.268,2.2659,2.2656,2.2681,2.2642,2.2637,2.2631,2.263,2.2611,2.2613,2.2613,2.2654,2.2595,2.2597,2.2598,2.2598,2.2742,2.2745,0,0,0,0,0,0,2.2699,2.2694,2.2714,2.2713,2.2678,2.2662,2.2658,2.2667,2.2642,2.2635,2.2632,2.2626,2.2612,2.2612,2.2612,2.2684,2.2597,2.2599,2.26,2.274,2.2743,2.2746,0,0,0,0,0,0,2.2699,2.2701,2.2715,2.2702,2.2702,2.2665,2.2676,2.2668,2.267,2.2638,2.263,2.2642,2.2609,2.261,2.2645,2.2683,2.2599,2.2601,2.2736,2.2741,2.2745,2.2832,0,0,0,0,0,0,2.2698,2.2702,2.2727,2.2703,2.2703,2.2749,2.2678,2.267,2.2674,2.2665,2.2645,2.2639,2.2607,2.2643,2.2646,2.2683,2.2602,2.2733,2.2738,2.2743,2.2825,2.2839,2.285,0,0,0,0,0,2.2697,2.2754,2.2729,2.2732,2.2734,2.2752,2.2751,2.2714,2.2677,2.2701,2.268,2.264,2.2678,2.2647,2.265,2.2689,2.273,2.2737,2.2743,2.282,2.2836,2.285,0,0,0,0,0,0,2.2784,2.275,2.2722,2.2773,2.2765,2.2738,2.2768,2.2733,2.2736,2.2728,2.2682,2.2678,2.2718,2.2707,2.2673,2.2749,2.2697,2.2705,2.2755,2.277,2.2782,2.2783,2.2603,0,0,0,0,0,2.2809,2.2827,2.2796,2.2843,2.2841,2.2805,2.2811,2.2783,2.2774,2.277,2.2751,2.2744,2.2753,2.2761,2.2769,2.2824,2.2816,2.2851,2.2864,2.2874,2.288,2.2904,2.2919,2.2767,2.2767,2.2767,0,0,2.2861,2.2844,2.2859,2.286,2.2851,2.2869,2.2803,2.2826,2.2838,2.2774,2.2804,2.279,2.2779,2.2823,2.2841,2.2814,2.292,2.2882,2.289,2.2891,2.2913,2.2927,2.294,2.2771,2.2771,2.277,0,0,2.2964,2.2955,2.2991,2.2983,2.297,2.2945,2.2954,2.2931,2.2919,2.2949,2.29,2.2914,2.2933,2.2925,2.2924,2.3021,2.2983,2.3025,2.3088,2.3113,2.3125,2.3135,2.3166,2.3179,2.3032,2.3032,2.3032,0,2.303,2.3055,2.3014,2.3039,2.3039,2.2981,2.3017,2.3011,2.3002,2.3003,2.2973,2.2993,2.2982,2.3021,2.3045,2.3047,2.3053,2.3026,2.3126,2.3136,2.3145,2.3175,2.3187,2.3037,2.3036,2.3036,2.3035,0,2.3135,2.3153,2.3184,2.3175,2.3179,2.321,2.3172,2.3181,2.3152,2.313,2.316,2.3143,2.3145,2.3152,2.3125,2.3188,2.3171,2.3135,2.3081,2.3165,2.3192,2.3203,2.3044,2.3042,2.3041,2.304,0,0,2.3293,2.3259,2.327,2.3264,2.3244,2.3257,2.3283,2.3284,2.3291,2.3287,2.3306,2.3322,2.3287,2.3286,2.3257,2.3279,2.3352,2.3239,2.3238,2.3258,2.3416,2.3442,2.3456,2.3327,2.3329,2.3331,2.3416,0,2.3388,2.3431,2.3393,2.3443,2.3457,2.3401,2.3423,2.3413,2.3393,2.3402,2.3379,2.339,2.3345,2.3343,2.3362,2.3339,2.3383,2.3333,2.3343,2.3344,2.3345,2.347,2.3498,2.358,2.3427,2.3429,2.343,0,2.3505,2.3504,2.3554,2.3528,2.3532,2.3554,2.3549,2.3559,2.3545,2.3529,2.3526,2.3489,2.3512,2.3461,2.3489,2.3456,2.3458,2.3447,2.3449,2.3447,2.339,2.3469,2.3605,2.3616,2.3447,2.3445,2.3444,0,2.3611,2.3622,2.3652,2.3649,2.362,2.3636,2.3624,2.3608,2.3609,2.3606,2.3606,2.3606,2.3606,2.3606,2.3569,2.3536,2.3601,2.3548,2.3586,2.3587,2.3601,2.36,2.3737,2.3607,2.3607,2.3606,2.3606,0,2.372,2.3752,2.3699,2.3718,2.3751,2.3708,2.3742,2.3725,2.371,2.3723,2.3676,2.3689,2.3641,2.3649,2.3621,2.3647,2.3648,2.3634,2.3625,2.3636,2.3638,2.3635,2.3628,2.3609,2.3609,2.3608,2.3608,0,2.3843,2.3809,2.3838,2.3808,2.3801,2.3827,2.38,2.3815,2.3791,2.3808,2.381,2.3772,2.3778,2.3742,2.3743,2.3724,2.3763,2.3746,2.3767,2.3761,2.38,2.3795,2.3937,2.3952,2.3816,2.3817,2.3818,0,2.3914,2.3937,2.3908,2.3913,2.3904,2.3913,2.3914,2.3871,2.3874,2.3858,2.3875,2.3877,2.3876,2.3889,2.3861,2.3861,2.3842,2.3892,2.3841,2.3851,2.3839,2.3837,2.3837,2.3901,2.3903,2.3905,2.3906,0,2.4041,2.4023,2.4026,2.4023,2.4025,2.402,2.4013,2.402,2.3973,2.3978,2.3984,2.3983,2.3982,2.3984,2.3977,2.3964,2.3927,2.3922,2.393,2.394,2.395,2.3942,2.3793,2.3918,2.3917,2.3916,2.3916,2.3915,2.4138,2.4155,2.4136,2.414,2.413,2.4123,2.4135,2.4111,2.4115,2.411,2.4085,2.4094,2.4077,2.4064,2.4054,2.406,2.4036,2.4049,2.4052,2.4055,2.406,2.3952,2.4059,2.4059,2.4058,2.4058,2.4058,0,2.426,2.4245,2.425,2.4239,2.4242,2.4206,2.4195,2.42,2.4208,2.4195,2.4195,2.42,2.4201,2.4173,2.417,2.4179,2.4162,2.418,2.4177,2.4174,2.4084,2.4075,2.4194,2.4194,2.4194,2.4194,2.4194,2.4194,2.4324,2.4349,2.4328,2.4346,2.4331,2.4339,2.4335,2.4328,2.4317,2.4324,2.4324,2.4306,2.4286,2.428,2.4279,2.427,2.427,2.4294,2.4279,2.4195,2.4181,2.4169,2.416,2.4295,2.4295,2.4369,2.437,2.437]},{"header":{"parameterUnit":"m.s-1","parameterCategory":1,"la1":30.2991,"la2":30.254,"lo1":-89.0895,"lo2":-89.0444,"dy":0.0017,"dx":0.0017,"nx":28,"ny":28,"refTime":"2023-07-18T21:00:00:Z","depth":0,"parameterNumber":3,"parameterNumberName":"V-component_of_WINDS"},"data":[0,0,0,0,0,0,0,0,0,0,0,0,0,0,0,0,0,0,0,0,0,0,0,0,0,0,0,0,0,0,0,0,0,0,0,0,0,0,0,0,0,0,0,0,0,0,0,0,0,0,0,0,0,0,0,0,0,0,2.8928,2.8929,0,2.9002,2.9003,2.9004,2.8995,2.8994,2.8992,2.8991,2.9064,2.9067,2.907,0,0,0,0,0,0,0,0,0,0,0,0,0,2.8773,2.8776,2.8928,2.8929,2.893,2.9002,2.9003,2.9004,2.8995,2.8993,2.8992,2.8991,2.9063,2.9067,2.907,0,0,0,0,0,0,0,0,0,0,0,0,0,2.8843,2.8777,2.8928,2.8934,2.8935,2.9002,2.9003,2.9004,2.8995,2.8993,2.8992,2.899,2.9062,2.9066,2.9071,2.9135,0,0,2.9085,2.9087,0,0,0,0,0,0,0,0,2.8839,2.8849,2.8932,2.8934,2.8935,2.8987,2.8975,2.9048,2.8996,2.8972,2.8991,2.8989,2.904,2.9046,2.9064,2.9138,2.9141,2.9085,2.9088,2.909,2.9091,0,0,0,0,0,0,0,2.8834,2.8846,2.8957,2.8933,2.8935,2.8931,2.8939,2.8989,2.9015,2.8974,2.8974,2.8983,2.904,2.9059,2.9065,2.9142,2.9085,2.9089,2.9092,2.9094,2.9271,2.9273,0,0,0,0,0,0,2.8829,2.8842,2.8955,2.8959,2.8882,2.8936,2.8945,2.8972,2.9015,2.9019,2.8984,2.8982,2.9052,2.906,2.9068,2.9144,2.909,2.9094,2.9097,2.9269,2.9271,2.9273,0,0,0,0,0,0,2.8825,2.8839,2.8952,2.8901,2.8915,2.894,2.8972,2.8975,2.8994,2.9022,2.9026,2.9,2.9051,2.9061,2.9118,2.9147,2.9096,2.91,2.9266,2.9269,2.9272,2.9298,0,0,0,0,0,0,2.8821,2.8838,2.8864,2.8901,2.8917,2.9002,2.8973,2.8978,2.9002,2.9,2.9038,2.9042,2.9051,2.9111,2.9123,2.9152,2.9104,2.9264,2.9268,2.9271,2.9295,2.9302,2.9308,0,0,0,0,0,2.8815,2.8868,2.8865,2.8879,2.8951,2.9004,2.9013,2.9023,2.9005,2.903,2.9048,2.9041,2.9142,2.9117,2.913,2.9161,2.9262,2.9267,2.9271,2.9292,2.93,2.9307,0,0,0,0,0,0,2.8832,2.8873,2.887,2.8937,2.8967,2.9002,2.9035,2.9032,2.9067,2.9064,2.9073,2.9082,2.9139,2.9156,2.9127,2.9224,2.9199,2.9206,2.9211,2.9219,2.9225,2.922,2.9108,0,0,0,0,0,2.8844,2.8885,2.8918,2.8973,2.8989,2.9009,2.9033,2.9038,2.9069,2.9082,2.9104,2.9133,2.9171,2.9196,2.9233,2.9297,2.9304,2.9325,2.9331,2.9336,2.9342,2.9375,2.9384,2.9288,2.9288,2.9288,0,0,2.8868,2.8895,2.8921,2.8977,2.9001,2.9042,2.902,2.9065,2.9094,2.9088,2.9143,2.916,2.9193,2.9253,2.9281,2.9269,2.937,2.9342,2.9346,2.9349,2.9381,2.939,2.9398,2.9291,2.929,2.929,0,0,2.8932,2.8958,2.9006,2.903,2.9067,2.908,2.9092,2.9127,2.9139,2.9194,2.9189,2.9224,2.929,2.9314,2.9334,2.9406,2.94,2.9417,2.945,2.9482,2.949,2.9496,2.952,2.9529,2.9423,2.9423,2.9423,0,2.8957,2.902,2.9031,2.9076,2.91,2.9096,2.9144,2.9167,2.9213,2.9229,2.9216,2.9297,2.932,2.9384,2.9402,2.9419,2.9431,2.9413,2.9488,2.9495,2.9501,2.9524,2.9533,2.9425,2.9425,2.9425,2.9424,0,2.9048,2.9091,2.9125,2.9171,2.9199,2.9245,2.926,2.9287,2.9289,2.9303,2.9358,2.9384,2.9426,2.9442,2.9444,2.9506,2.9497,2.9486,2.9461,2.9512,2.9533,2.9542,2.9427,2.9427,2.9426,2.9426,0,0,2.9126,2.9176,2.9188,2.9208,2.9247,2.928,2.9325,2.9366,2.9388,2.9419,2.9456,2.9511,2.95,2.9524,2.9528,2.9557,2.9609,2.9542,2.9542,2.9552,2.9677,2.9684,2.9694,2.9606,2.9608,2.9609,2.9673,0,2.9193,2.9273,2.9283,2.9354,2.9393,2.9389,2.9428,2.9455,2.9469,2.9503,2.9517,2.9556,2.9539,2.9553,2.9581,2.9597,2.9634,2.9593,2.9638,2.9639,2.9629,2.9706,2.9715,2.9774,2.9682,2.9683,2.9684,0,2.9282,2.9317,2.9391,2.9424,2.9441,2.9475,2.9513,2.9546,2.9576,2.9583,2.9609,2.961,2.9654,2.9627,2.9687,2.9659,2.9677,2.9688,2.969,2.9694,2.9664,2.971,2.9794,2.9802,2.9698,2.9697,2.9696,0,2.9329,2.9394,2.9447,2.9464,2.9504,2.9528,2.9546,2.9574,2.9597,2.963,2.9645,2.9681,2.9701,2.9729,2.9738,2.9719,2.9797,2.9772,2.9803,2.9802,2.9819,2.9817,2.9905,2.9833,2.9833,2.9833,2.9833,0,2.9403,2.9448,2.9469,2.9501,2.9551,2.9561,2.9609,2.9626,2.9651,2.9685,2.9684,2.9715,2.9727,2.976,2.9768,2.9815,2.9824,2.983,2.9831,2.983,2.9829,2.9841,2.9837,2.9835,2.9835,2.9834,2.9834,0,2.9464,2.948,2.9536,2.9569,2.9578,2.9613,2.964,2.9671,2.9683,2.9726,2.9737,2.9756,2.9795,2.9808,2.9854,2.9859,2.9914,2.9912,2.9904,2.9904,2.9933,2.993,3.0031,3.0044,2.9965,2.9966,2.9966,0,2.9509,2.9544,2.958,2.9603,2.9621,2.9659,2.9682,2.9693,2.9718,2.9754,2.9779,2.9817,2.9848,2.991,2.9927,2.9962,2.996,2.9993,2.9966,2.9962,2.9959,2.9956,2.9959,2.9998,2.9999,3.0,3.0,0,2.9587,2.9593,2.9628,2.9665,2.9693,2.9723,2.9752,2.977,2.9785,2.9812,2.9852,2.9876,2.9923,2.996,2.9996,3.0012,3.0008,3.0009,3.0018,3.0016,3.0009,3.0011,2.9916,3.0007,3.0006,3.0005,3.0005,3.0005,2.964,2.967,2.97,2.9738,2.9761,2.9787,2.9817,2.9833,2.9867,2.9907,2.9911,2.9953,2.998,3.0027,3.0045,3.0077,3.0067,3.008,3.0083,3.0086,3.0088,3.0005,3.0083,3.0083,3.0083,3.0083,3.0083,0,2.9717,2.9736,2.9771,2.9811,2.984,2.9835,2.9866,2.9891,2.9928,2.9954,2.9985,3.0029,3.0065,3.0085,3.0121,3.0142,3.0141,3.0151,3.0149,3.0152,3.0095,3.0083,3.0151,3.0151,3.0151,3.0151,3.0151,3.0151,2.976,2.981,2.9819,2.9879,2.9897,2.9939,2.9957,2.998,3.0001,3.0051,3.0081,3.0094,3.0117,3.0154,3.0186,3.0191,3.0203,3.0214,3.0217,3.0163,3.0156,3.015,3.0139,3.0217,3.0217,3.0271,3.0272,3.0272]}]]